KF5FGL Weather Reports


Display with metric or nautical units.
time (UTC)temp
F
wind
direction
speed
MPH
gust
MPH
rain 1hr
in
rain 24hr
in
rain mn
in
humidity
%
barometer
mb
20260831033018 86 141 1.0 7.0 0.00 0.00 0.00 64 1013.1
20260831031503 87 167 2.0 9.0 0.00 0.00 0.00 61 1012.9
20260831030024 88 179 2.0 7.0 0.00 0.00 0.00 59 1012.7
20260831024514 87 120 3.0 9.0 0.00 0.00 0.00 60 1012.4
20260831023002 89 127 2.0 6.0 0.00 0.00 0.00 57 1012.0
20260831021522 89 142 2.0 9.0 0.00 0.00 0.00 57 1011.7
20260831020011 89 169 2.0 9.0 0.00 0.00 0.00 56 1011.5
20260831014532 91 128 2.0 7.0 0.00 0.00 0.00 55 1011.3
20260831013019 90 148 3.0 7.0 0.00 0.00 0.00 56 1011.2
20260831011514 91 113 2.0 11.0 0.00 0.00 0.00 55 1011.0
20260831010031 90 120 2.0 10.0 0.00 0.00 0.00 57 1011.0
20260831004516 92 142 2.0 8.0 0.00 0.00 0.00 54 1010.8
20260831003004 93 127 2.0 12.0 0.00 0.00 0.00 51 1010.5
20260831001526 94 136 2.0 8.0 0.00 0.00 0.00 48 1010.4
20260831000016 94 142 3.0 8.0 0.00 0.00 0.00 47 1010.4
20260830234504 95 90 5.0 8.0 0.00 0.00 0.00 46 1010.3
20260830233023 96 133 0.0 5.0 0.00 0.00 0.00 45 1010.3
20260830231516 97 146 2.0 7.0 0.00 0.00 0.00 44 1010.3
20260830230000 97 139 2.0 8.0 0.00 0.00 0.00 42 1010.4
20260830224521 96 97 0.0 5.0 0.00 0.00 0.00 44 1010.6
20260830223010 98 169 1.0 6.0 0.00 0.00 0.00 41 1010.6
20260830221531 98 163 0.0 5.0 0.00 0.00 0.00 41 1010.6
20260830220017 97 117 2.0 7.0 0.00 0.00 0.00 42 1010.7
20260830214503 98 133 1.0 5.0 0.00 0.00 0.00 42 1010.7
20260830213022 96 79 1.0 6.0 0.00 0.00 0.00 46 1011.0
20260830211509 98 105 2.0 8.0 0.00 0.00 0.00 43 1011.3
20260830210031 98 216 1.0 6.0 0.00 0.00 0.00 43 1011.6
20260830204515 97 220 4.0 11.0 0.00 0.00 0.00 43 1011.8
20260830203004 97 189 0.0 7.0 0.00 0.00 0.00 44 1012.1
20260830201521 94 126 3.0 8.0 0.00 0.00 0.00 48 1012.4
20260830200012 98 215 1.0 5.0 0.00 0.00 0.00 46 1012.7
20260830194528 94 246 4.0 10.0 0.00 0.00 0.00 49 1012.9
20260830193021 96 155 1.0 7.0 0.00 0.00 0.00 46 1013.1
20260830191503 96 166 2.0 8.0 0.00 0.00 0.00 48 1013.4
20260830190025 94 206 3.0 8.0 0.00 0.00 0.00 53 1013.6
20260830184509 96 98 1.0 5.0 0.00 0.00 0.00 52 1013.9
20260830183034 92 132 2.0 7.0 0.00 0.00 0.00 55 1014.2
20260830181515 95 269 1.0 7.0 0.00 0.00 0.00 51 1014.3
20260830180003 91 149 1.0 8.0 0.00 0.00 0.00 57 1014.6
20260830174526 93 229 0.0 6.0 0.00 0.00 0.00 54 1014.7
20260830173007 94 174 2.0 8.0 0.00 0.00 0.00 55 1015.0
20260830171526 91 107 2.0 8.0 0.00 0.00 0.00 57 1015.1
20260830170012 91 254 0.0 8.0 0.00 0.00 0.00 59 1015.2
20260830164602 93 106 1.0 9.0 0.00 0.00 0.00 58 1015.4
20260830163034 90 72 1.0 7.0 0.00 0.00 0.00 63 1015.4
20260830161506 89 213 2.0 8.0 0.00 0.00 0.00 66 1015.4
20260830160046 89 253 1.0 5.0 0.00 0.00 0.00 68 1015.5
20260830154511 88 166 2.0 7.0 0.00 0.00 0.00 68 1015.5
20260830153028 88 220 2.0 7.0 0.00 0.00 0.00 70 1015.4
20260830151515 87 169 3.0 7.0 0.00 0.00 0.00 70 1015.5
20260830150035 86 227 2.0 10.0 0.00 0.00 0.00 74 1015.4
20260830144516 84 231 0.0 8.0 0.00 0.00 0.00 78 1015.4
20260830143004 82 216 3.0 9.0 0.00 0.00 0.00 81 1015.4
20260830141527 82 207 3.0 8.0 0.00 0.00 0.00 82 1015.4
20260830140009 80 162 1.0 8.0 0.00 0.00 0.00 83 1015.4
20260830134535 80 187 2.0 7.0 0.00 0.00 0.00 83 1015.3
20260830133021 78 208 2.0 8.0 0.00 0.00 0.00 81 1015.2
20260830131502 78 225 2.0 8.0 0.00 0.00 0.00 81 1015.1
20260830130022 79 142 3.0 7.0 0.00 0.00 0.00 82 1015.0
20260830124511 78 201 1.0 7.0 0.00 0.00 0.00 80 1014.8
20260830123038 77 231 0.0 6.0 0.00 0.00 0.00 80 1014.7
20260830121533 77 206 1.0 5.0 0.00 0.00 0.00 80 1014.6
20260830120004 77 228 2.0 7.0 0.00 0.00 0.00 81 1014.5
20260830114525 78 196 1.0 7.0 0.00 0.00 0.00 82 1014.5
20260830113012 78 224 1.0 9.0 0.00 0.00 0.00 81 1014.6
20260830111504 78 219 2.0 8.0 0.00 0.00 0.00 81 1014.6
20260830110022 78 193 3.0 8.0 0.00 0.00 0.00 81 1014.5
20260830104512 77 202 1.0 6.0 0.00 0.00 0.00 81 1014.4
20260830103037 77 154 0.0 5.0 0.00 0.00 0.00 82 1014.4
20260830101517 78 195 0.0 7.0 0.00 0.00 0.00 83 1014.3
20260830100006 77 171 0.0 5.0 0.00 0.00 0.00 82 1014.4
20260830094532 77 187 0.0 4.0 0.00 0.00 0.00 83 1014.4
20260830093014 77 199 1.0 4.0 0.00 0.00 0.00 83 1014.5
20260830091504 77 187 0.0 3.0 0.00 0.00 0.00 83 1014.4
20260830090024 78 168 0.0 1.0 0.00 0.00 0.00 83 1014.5
20260830084513 78 162 0.0 2.0 0.00 0.00 0.00 84 1014.5
20260830083030 77 157 0.0 3.0 0.00 0.00 0.00 84 1014.5
20260830081517 77 187 0.0 3.0 0.00 0.00 0.00 84 1014.5
20260830080005 78 181 0.0 2.0 0.00 0.00 0.00 83 1014.5
20260830074525 79 178 0.0 2.0 0.00 0.00 0.00 81 1014.6
20260830073015 78 202 0.0 3.0 0.00 0.00 0.00 82 1014.6
20260830071503 78 200 0.0 4.0 0.00 0.00 0.00 81 1014.8
20260830070022 79 165 0.0 4.0 0.00 0.00 0.00 80 1014.8
20260830064513 81 136 0.0 2.0 0.00 0.00 0.00 77 1014.8
20260830063029 79 108 0.0 4.0 0.00 0.00 0.00 79 1014.8
20260830061523 80 144 1.0 5.0 0.00 0.00 0.00 77 1014.8
20260830060004 82 93 2.0 6.0 0.00 0.00 0.00 73 1014.8
20260830054528 82 137 0.0 4.0 0.00 0.00 0.00 74 1014.7
20260830053011 81 152 0.0 4.0 0.00 0.00 0.00 74 1014.7
20260830051529 83 152 0.0 5.0 0.00 0.00 0.00 71 1014.6
20260830050018 82 141 1.0 8.0 0.00 0.00 0.00 72 1014.7
20260830044505 83 186 1.0 6.0 0.00 0.00 0.00 70 1014.7
20260830043026 84 198 0.0 7.0 0.00 0.00 0.00 68 1014.7
20260830041515 84 139 0.0 7.0 0.00 0.00 0.00 68 1014.7
20260830040004 85 154 1.0 8.0 0.00 0.00 0.00 65 1014.5
20260830034525 86 137 1.0 7.0 0.00 0.00 0.00 63 1014.3